Wind_Speed
9 9 8 7 6 5 5 5 2 3 3 2 5 4 5 5 8 10 11 11 9 8 8 11 12 7 5 6 8 9 10 7 5 2 5 10 18 18 14 16 15 14 14 14 14 16 16 15 14 14 14 14 15 15 15 14 14 13 13 12 12 12 11 11 10 10 10 10 11 11 11 11 12 13 13 14 14 14 14 15 15 15 15 15 16 16 15 17 18 18 19 18 17 16 17 16 17
10 9 8 5 5 4 2 2 3 4 4 4 5 4 7 6 8 11 11 11 9 10 10 11 10 6 5 7 8 9 11 10 9 7 10 18 21 16 16 16 15 15 14 14 14 15 15 15 14 14 14 14 15 14 14 14 13 13 12 12 11 11 11 11 10 10 10 10 10 10 10 10 11 12 13 14 14 14 14 14 15 15 14 14 15 15 15 16 18 17 18 17 15 17 19 18 18
10 9 7 5 4 3 2 2 3 3 4 5 6 6 7 7 10 11 10 10 12 14 13 11 8 5 7 8 6 7 8 8 11 11 12 19 17 14 18 16 15 15 14 14 14 15 15 15 14 14 13 14 14 14 14 13 13 12 11 11 10 10 10 10 10 9 9 9 9 9 10 11 12 12 13 13 14 14 14 13 14 15 14 14 15 15 15 16 17 17 18 17 16 17 19 19 18
10 8 5 4 3 2 3 3 2 2 3 6 6 6 7 9 12 11 11 12 13 15 13 11 7 3 4 8 7 7 9 9 12 11 11 15 15 17 18 16 15 14 13 14 14 14 14 15 15 14 13 13 13 13 13 12 11 11 11 10 10 10 10 10 9 9 8 8 9 9 10 11 12 13 12 13 14 14 14 13 13 15 13 14 15 15 16 16 16 17 19 18 16 16 17 18 18
9 6 3 2 2 1 3 2 1 2 2 5 6 7 9 11 13 13 12 13 13 14 12 9 7 5 7 8 5 6 8 9 12 13 13 14 17 19 17 16 14 13 13 14 14 14 15 16 15 14 13 12 12 12 12 11 11 10 10 10 10 9 10 10 9 9 8 8 9 11 12 12 12 12 12 11 13 13 13 13 14 14 13 14 15 14 15 16 16 16 17 16 16 16 16 16 16
8 6 2 1 2 2 3 2 2 2 4 4 6 9 11 13 13 15 14 13 12 12 10 7 9 10 9 8 7 7 6 9 12 13 15 17 19 18 17 15 14 14 14 14 15 15 16 16 15 14 13 12 11 11 11 10 10 10 10 10 10 9 10 9 9 9 8 7 8 11 13 12 11 11 12 11 11 12 12 13 14 14 13 14 14 14 14 15 15 14 15 15 15 16 15 15 15
6 4 2 1 2 2 4 2 2 5 4 4 7 11 12 14 13 15 15 13 11 10 7 7 11 10 8 7 8 9 6 11 12 13 17 18 19 18 16 14 14 14 14 14 15 15 16 15 14 14 13 12 12 11 10 10 10 10 10 9 9 9 9 8 8 7 7 8 8 9 11 12 12 11 12 11 10 11 12 12 13 13 13 14 14 14 14 14 15 14 14 15 15 15 15 14 14
3 2 1 1 2 2 3 1 4 5 5 4 9 12 13 15 13 14 15 13 11 9 7 9 11 8 8 7 6 7 8 12 13 16 19 20 19 17 15 14 15 14 13 14 15 15 15 15 14 14 14 12 11 10 10 10 10 10 10 9 9 9 8 8 7 7 7 8 9 8 8 11 13 12 11 10 9 10 11 11 12 13 13 13 14 14 14 14 14 14 14 15 15 16 15 14 14
2 2 1 1 2 2 1 2 5 6 7 8 11 12 13 14 13 14 14 12 10 9 9 9 7 7 8 9 9 8 9 14 17 19 20 20 18 16 14 14 14 14 13 14 15 15 14 15 15 14 13 12 10 10 10 10 10 10 9 9 9 9 9 7 8 8 9 9 9 7 8 10 11 12 12 9 8 9 10 11 12 12 12 12 13 14 14 14 14 14 14 15 16 16 16 15 15
1 1 2 1 2 3 4 4 6 8 9 9 11 12 12 12 12 13 12 12 11 9 10 7 6 9 10 11 9 7 11 16 20 20 19 19 17 15 14 13 14 14 13 13 15 14 14 15 15 14 12 10 10 10 10 10 10 9 9 9 9 9 8 8 8 9 10 11 10 8 9 10 10 11 11 8 8 9 10 11 12 12 12 13 14 15 15 14 15 14 15 16 15 16 16 15 15
2 1 2 2 3 3 5 6 6 9 10 10 11 12 9 10 11 11 12 12 10 9 10 7 8 12 11 10 7 9 15 19 20 20 20 18 15 14 14 13 13 13 12 13 15 14 15 15 14 13 11 10 10 10 10 10 10 9 9 9 9 9 9 9 9 10 10 10 10 8 10 12 11 11 11 8 8 8 9 11 13 13 14 14 14 15 15 15 15 14 15 14 13 15 16 15 14
2 1 3 3 2 2 6 8 9 10 11 11 11 10 8 10 10 11 13 12 10 10 9 7 8 10 10 9 6 12 18 19 19 20 19 17 15 14 14 13 12 12 12 13 15 15 15 14 13 12 11 11 11 10 10 10 10 9 9 9 9 10 10 10 10 11 10 9 9 9 11 13 12 11 10 10 8 7 8 11 12 13 15 15 15 15 15 14 14 14 14 12 12 15 17 15 15
2 3 4 2 2 2 7 8 9 10 10 10 10 9 8 10 10 11 12 11 10 8 8 7 8 8 9 10 9 13 17 18 19 19 18 16 14 14 13 13 12 12 12 12 13 14 14 13 13 12 12 12 11 10 10 10 10 10 10 10 10 10 10 11 12 12 11 10 10 10 13 14 13 11 11 12 11 8 8 11 12 13 15 16 16 15 14 14 14 14 12 12 14 16 16 15 15
1 2 4 1 1 2 7 8 9 9 8 10 10 10 9 7 9 10 11 11 8 6 8 8 8 9 10 11 9 10 14 18 19 18 17 15 14 14 13 12 12 12 12 12 12 12 12 11 12 12 12 12 11 10 10 9 10 10 10 10 10 11 12 12 12 13 12 11 11 12 15 15 14 12 12 14 14 10 9 12 14 15 16 17 17 15 14 14 15 13 11 13 15 14 14 14 15
1 1 3 2 3 4 5 6 9 8 8 11 11 10 9 7 8 10 9 10 7 6 8 7 6 6 10 12 10 12 17 20 18 17 16 15 14 13 13 12 12 11 11 11 11 11 11 11 11 11 10 11 11 10 10 10 10 10 10 11 11 12 12 12 13 14 13 12 12 14 16 16 15 13 14 16 15 13 11 13 15 16 18 18 17 16 15 15 15 13 12 14 14 14 14 13 14
1 2 3 2 3 5 4 6 9 8 8 11 12 11 11 9 8 8 6 7 9 7 5 6 4 2 8 12 14 19 22 20 18 18 16 15 14 13 12 12 11 11 11 10 10 10 10 10 10 10 10 10 10 9 10 11 10 10 11 12 12 13 12 13 14 14 13 12 12 15 16 16 15 14 15 15 14 13 13 13 15 15 18 19 18 17 15 15 14 12 12 14 14 14 13 12 13
2 3 2 3 3 4 6 7 6 8 11 12 13 12 12 11 8 6 6 7 10 8 5 6 4 3 10 15 20 25 23 21 19 18 16 15 14 13 12 11 11 11 10 10 9 9 9 10 10 9 9 10 10 10 10 10 11 11 12 13 13 13 13 14 15 14 13 12 13 14 15 15 14 14 14 14 12 13 13 14 15 16 17 18 18 17 16 15 14 12 13 13 13 13 13 12 12
3 2 2 2 2 1 4 6 5 10 14 13 13 12 12 13 10 8 9 9 9 9 7 9 9 9 16 21 24 25 22 21 20 18 16 14 13 12 12 11 11 11 10 10 9 9 9 9 9 8 8 9 9 9 9 9 10 11 11 12 12 12 12 13 13 14 14 13 12 13 13 13 14 14 13 13 12 12 14 14 15 17 17 17 17 16 16 16 14 13 13 13 12 12 12 11 10
2 0 1 1 4 0 2 7 6 9 13 13 12 11 11 13 12 9 9 10 10 10 10 11 13 14 19 22 23 22 21 20 19 18 16 14 13 13 12 11 11 11 10 10 9 8 8 8 8 8 8 8 8 8 9 9 9 10 10 11 11 11 12 12 13 14 14 13 12 13 14 14 14 14 12 13 14 13 14 15 15 17 17 17 16 16 16 15 14 13 12 11 11 10 10 9 8
0 2 0 2 3 3 5 8 6 9 14 13 11 10 10 12 11 8 9 12 12 11 11 13 15 17 19 20 21 21 20 19 18 17 16 15 13 13 12 12 12 10 10 10 9 8 8 8 8 8 7 7 8 8 8 8 8 9 9 10 10 10 11 12 12 13 13 12 12 12 14 16 14 13 12 12 14 13 14 15 15 15 15 16 16 16 15 14 14 12 11 9 9 8 7 6 6
0 2 1 1 3 3 7 7 7 11 13 12 11 11 11 11 8 8 11 11 10 9 11 14 17 19 20 19 20 20 19 19 18 16 16 15 13 12 11 11 11 10 9 9 9 9 8 8 8 7 7 7 8 7 7 7 8 8 8 9 10 10 10 10 10 11 11 12 13 13 14 15 13 12 11 10 10 11 13 13 13 13 13 13 14 13 12 12 11 10 9 7 6 7 6 6 6
1 2 2 3 4 3 6 7 9 12 13 12 12 11 11 10 8 10 10 5 7 9 10 15 18 19 20 20 20 19 18 18 17 16 15 14 13 12 12 11 11 10 9 8 8 9 8 8 8 7 7 7 7 7 7 7 7 7 8 9 9 9 9 9 9 10 10 11 13 13 14 13 12 11 10 9 9 10 11 11 11 11 11 11 10 10 8 9 9 8 7 6 6 6 6 6 6
1 3 4 4 4 4 6 7 10 12 13 12 11 11 11 10 9 9 5 4 8 10 11 15 18 20 20 20 20 18 17 16 16 16 14 14 13 12 12 11 11 9 8 8 8 8 8 7 7 7 7 8 8 7 7 7 7 7 8 9 9 9 8 8 9 10 10 11 13 12 12 12 11 10 10 9 9 9 9 10 10 10 10 9 8 9 8 8 8 8 7 6 6 6 6 6 6
2 2 5 4 4 5 6 8 10 12 12 11 10 11 11 10 10 8 5 7 10 11 12 16 19 21 21 18 17 17 16 16 15 15 14 13 13 12 12 11 10 9 8 9 8 8 8 7 7 8 8 8 8 7 7 6 7 8 8 8 8 8 7 8 9 10 10 11 12 11 10 10 10 10 10 9 8 8 8 9 9 8 9 9 8 8 8 8 7 7 7 6 6 6 6 6 6
3 2 6 4 5 6 6 8 11 12 11 10 11 11 10 9 9 7 7 9 11 12 13 16 19 19 18 16 16 16 15 15 15 15 14 12 12 12 11 11 10 9 9 9 8 8 8 8 8 8 8 8 8 7 6 6 7 7 7 7 8 8 7 8 9 9 10 11 11 10 9 9 10 10 9 8 7 7 7 7 8 8 8 8 8 8 8 7 7 7 6 6 6 5 5 5 5
2 2 5 5 7 7 7 9 11 12 9 9 12 11 10 11 10 7 7 10 12 14 14 16 17 18 16 15 15 15 14 15 16 15 13 12 12 12 11 11 10 8 9 9 8 8 8 8 8 8 8 8 8 7 7 6 7 7 7 7 8 7 7 8 8 9 10 10 10 10 9 9 9 10 9 9 8 7 7 7 8 8 8 7 7 8 7 6 6 6 6 6 5 5 5 5 5
3 4 6 6 8 8 7 9 11 11 10 11 12 12 12 10 6 6 8 11 14 15 15 15 16 16 15 14 14 15 15 15 15 15 13 13 12 12 11 11 10 9 9 9 8 8 8 8 8 8 9 8 8 7 7 7 7 7 8 8 8 7 8 8 8 9 9 10 10 10 10 9 9 9 9 8 8 7 7 7 7 7 7 7 7 7 6 6 6 5 5 5 5 4 5 5 5
5 6 8 7 8 8 7 10 11 10 9 10 11 12 12 8 4 7 12 12 14 15 15 15 15 14 14 14 14 13 14 15 15 14 14 13 12 11 11 10 10 10 9 9 8 8 8 8 8 8 9 8 7 7 8 8 7 8 8 8 8 8 8 7 8 9 9 10 10 9 9 9 8 8 8 8 8 7 7 7 7 7 7 6 6 6 5 5 5 5 4 4 4 3 4 4 4
7 6 6 7 7 8 7 7 8 7 7 9 12 11 9 7 7 11 13 12 14 15 15 15 14 13 13 13 12 11 13 14 14 13 13 12 11 11 11 10 10 10 9 9 8 9 9 8 8 8 8 8 7 7 8 7 7 8 8 8 8 8 7 7 8 8 9 9 9 9 9 9 8 7 7 7 7 7 7 7 7 6 6 6 5 5 5 4 4 4 3 3 3 2 3 4 3
7 5 4 7 6 7 8 5 5 6 4 5 6 7 7 7 9 12 13 13 15 14 14 14 14 13 12 12 11 11 13 14 13 13 12 11 10 11 10 10 10 10 9 9 9 10 9 8 8 9 9 8 8 7 8 7 7 8 8 8 9 8 7 7 7 8 8 8 8 9 8 8 7 7 7 6 6 7 7 7 6 6 5 5 5 4 4 4 4 3 3 3 2 2 3 3 3
6 5 5 5 4 5 9 5 6 7 2 1 2 3 7 8 10 12 11 13 14 14 14 14 14 13 12 12 12 11 12 13 13 13 13 12 11 10 10 10 10 10 9 9 10 10 10 9 8 9 9 9 8 8 8 8 7 7 8 8 8 8 7 7 7 7 8 8 8 8 7 7 6 6 6 5 5 6 6 7 6 6 5 4 4 3 3 4 4 3 3 2 2 2 2 3 3
6 4 6 6 4 5 8 4 5 6 4 2 3 3 7 7 11 12 10 13 13 13 14 14 14 14 13 12 12 11 11 12 13 13 13 12 11 11 11 11 10 10 10 10 11 11 10 10 9 9 10 9 9 8 8 8 8 7 8 8 8 7 7 7 8 8 8 8 8 7 7 6 5 5 4 4 4 5 6 6 6 5 5 4 4 4 4 4 4 4 3 3 3 2 2 3 3
6 5 5 5 6 5 7 5 5 6 8 5 3 2 7 7 11 12 11 13 13 12 14 15 15 15 13 11 11 11 11 12 12 13 13 12 11 11 11 11 10 10 10 10 11 11 11 11 9 9 10 10 9 9 9 8 8 8 8 8 7 7 7 8 8 8 8 8 8 7 7 5 5 4 4 4 4 4 5 6 6 5 5 4 4 4 5 4 4 4 4 4 3 2 3 3 3
5 6 4 2 6 6 6 5 6 8 9 7 4 2 7 10 12 13 12 13 13 12 14 16 14 13 13 11 11 11 11 11 11 13 14 13 12 12 12 11 11 10 10 10 11 11 11 11 9 9 10 10 10 10 9 8 8 8 8 7 7 7 7 8 8 8 8 8 8 8 7 5 5 4 4 4 4 4 5 5 6 5 5 4 4 4 5 4 4 4 4 4 3 3 3 4 4
7 7 4 3 6 8 8 5 8 11 9 8 7 4 7 12 13 13 13 13 12 12 13 14 14 14 13 12 12 11 11 11 11 13 15 14 13 13 12 12 11 10 10 10 11 11 11 10 10 9 9 10 10 10 9 9 8 8 8 8 8 7 7 7 8 8 8 8 8 8 7 6 5 5 5 5 4 4 5 5 5 5 5 4 4 5 5 4 4 4 4 4 3 3 4 4 4
5 1 4 2 5 5 8 7 9 11 8 9 9 5 8 12 13 13 13 13 12 12 13 13 13 13 12 12 11 11 11 11 13 14 15 14 14 13 12 12 12 10 10 11 11 11 11 11 11 10 10 10 10 10 10 9 9 8 8 9 8 8 8 8 8 8 8 8 8 8 8 7 6 6 6 6 5 5 4 5 5 5 5 4 4 4 4 4 4 4 4 4 3 3 4 4 4
3 4 4 2 4 4 9 8 9 10 6 8 9 6 8 11 12 13 13 13 12 13 14 14 13 13 12 13 12 13 12 11 14 15 14 14 14 13 12 12 12 11 10 11 11 11 11 11 11 11 10 10 10 10 10 10 9 9 9 9 9 9 8 8 8 8 8 8 8 8 8 7 7 7 6 6 5 5 5 5 5 5 4 4 4 4 4 4 4 3 3 3 4 4 4 5 5
5 7 5 4 3 2 7 7 10 11 5 6 10 8 8 10 10 12 13 13 13 14 15 15 15 14 12 13 14 13 11 11 14 14 14 14 14 14 13 12 12 12 11 11 11 11 11 11 12 12 11 10 10 10 10 9 9 8 9 9 9 9 9 8 8 8 8 8 8 8 7 8 8 7 7 6 6 5 5 5 5 4 4 4 4 4 4 4 4 3 3 3 4 5 5 7 6
5 6 6 4 3 4 6 6 9 9 3 4 10 10 8 10 9 9 12 13 11 13 14 14 16 15 12 13 13 12 12 12 13 14 15 15 14 15 14 12 13 12 12 12 12 12 11 11 12 12 11 11 10 9 9 9 8 7 7 7 8 8 8 8 7 8 8 8 8 8 8 8 8 7 7 7 6 6 6 5 5 4 4 4 4 4 4 3 3 3 3 4 4 4 5 7 8
5 5 6 4 5 4 3 6 8 7 4 4 9 8 7 9 9 8 11 12 11 12 14 13 14 14 14 13 12 13 14 13 13 14 14 15 15 15 14 13 13 12 12 12 12 13 12 12 12 12 12 11 10 10 9 8 8 8 6 7 6 7 7 7 7 8 8 7 8 8 8 9 8 8 7 7 6 6 6 5 5 4 4 3 3 3 3 3 3 2 3 4 5 4 5 7 8
5 5 5 3 6 5 1 7 9 7 6 6 7 5 5 8 10 10 10 11 12 12 14 14 13 13 13 13 13 13 14 13 13 14 14 15 16 15 14 13 13 13 12 12 13 13 12 12 13 12 12 11 10 10 9 8 9 8 7 7 7 6 7 8 8 9 9 8 8 8 9 9 8 8 7 7 6 6 6 5 5 5 4 3 3 3 3 3 3 3 3 4 5 5 5 5 6
5 6 4 1 4 4 2 8 8 5 6 7 8 5 4 7 11 10 10 10 12 12 14 15 14 14 14 13 13 13 13 13 13 14 15 16 16 16 15 14 13 13 13 12 13 13 13 13 13 13 12 12 11 11 11 9 9 9 8 8 8 8 8 9 9 9 9 9 8 9 9 9 8 7 7 6 6 6 6 5 5 4 4 4 3 2 2 2 2 3 3 4 5 6 5 4 5
3 6 5 1 2 4 5 8 7 4 3 7 10 5 0 5 10 11 11 12 13 13 14 16 15 14 14 13 13 13 13 13 13 14 15 15 16 16 15 15 14 13 13 12 12 13 13 13 14 13 12 12 12 12 12 10 9 9 9 8 8 8 8 8 8 7 8 8 7 8 8 8 8 7 7 6 6 6 6 5 5 4 4 4 3 2 2 2 2 2 3 4 4 5 6 4 3
1 6 6 5 4 5 6 7 6 4 0 6 11 7 2 5 8 13 15 14 14 14 15 15 15 15 15 14 14 14 14 14 14 13 14 15 16 16 16 15 15 13 13 13 12 13 14 14 15 14 12 11 12 13 13 11 10 9 9 7 7 7 7 7 8 7 7 7 7 7 7 8 7 7 6 6 6 6 6 5 5 4 3 3 3 2 2 2 2 2 3 3 3 4 5 4 4
1 4 4 6 4 3 5 6 4 4 3 4 9 9 5 3 6 13 16 15 15 17 17 16 16 16 16 15 15 15 15 15 15 14 14 16 17 16 16 16 15 14 13 13 12 13 14 15 15 14 13 11 12 13 13 12 10 9 8 8 7 7 6 6 7 7 7 7 6 6 6 7 7 6 6 6 6 5 5 5 4 4 3 3 3 2 2 2 2 2 2 2 3 3 4 4 4
0 1 5 5 4 3 3 4 2 4 6 5 7 9 6 2 6 9 12 13 15 15 15 16 16 16 16 15 16 16 14 14 14 15 16 17 17 17 17 16 15 14 13 13 13 12 14 15 15 15 14 12 12 13 14 12 11 9 8 8 7 7 6 6 6 7 7 7 7 7 6 6 6 6 6 6 6 5 5 5 4 4 4 3 2 2 2 2 2 2 1 2 2 2 3 3 3
2 4 7 6 5 3 2 2 2 3 6 6 6 10 7 3 4 6 8 10 13 14 13 15 16 17 17 15 16 16 14 14 14 14 17 18 18 18 17 16 15 14 13 13 13 13 13 14 15 15 15 13 13 14 14 13 12 10 9 8 8 7 7 6 6 6 6 7 7 7 6 6 6 6 6 6 6 6 5 5 4 4 3 3 2 2 2 2 3 3 2 1 1 2 2 3 3
6 7 8 6 5 4 4 3 1 4 6 3 3 7 8 5 2 5 5 6 11 14 14 16 17 17 17 15 15 16 14 14 14 13 15 18 18 18 17 16 15 14 14 14 14 14 14 14 15 16 15 14 14 14 14 13 12 11 9 9 8 7 7 6 6 5 6 6 6 6 6 6 5 5 6 6 6 6 6 5 4 4 3 3 3 3 3 2 2 3 3 2 1 0 1 2 3
9 8 8 8 6 6 7 6 5 6 4 1 2 5 7 5 1 5 7 6 9 13 14 16 18 17 17 16 16 15 13 14 14 13 13 14 15 16 16 15 15 15 15 15 15 15 14 14 16 16 16 16 15 14 15 14 13 11 10 9 9 8 7 6 6 5 5 5 6 6 6 6 6 6 6 6 6 7 6 5 5 4 4 3 3 3 3 3 3 3 3 3 2 2 1 2 3
11 9 9 9 7 7 9 8 7 7 6 4 2 2 5 4 2 6 8 7 7 10 13 15 17 17 17 17 16 15 14 14 13 13 14 13 14 16 16 15 16 16 17 16 16 16 15 15 16 17 17 17 16 15 15 15 14 12 11 10 9 9 8 7 7 6 6 6 5 6 6 6 6 6 6 6 5 6 6 5 5 5 4 4 4 3 3 4 4 4 3 3 3 2 2 2 2
11 9 9 10 8 7 8 7 7 6 6 6 6 3 4 4 4 6 5 6 7 8 11 13 14 16 15 15 16 15 15 14 13 13 14 14 15 16 16 16 17 17 17 17 17 17 16 16 17 17 17 18 17 16 15 15 14 13 12 11 10 9 9 8 8 6 6 6 6 6 6 6 5 5 5 5 5 5 5 5 5 5 5 4 4 4 4 4 5 4 4 4 4 3 3 3 3
9 9 10 10 8 7 6 5 5 5 6 5 6 4 2 3 5 6 6 5 7 9 10 12 14 15 14 12 13 13 13 13 13 13 14 16 17 17 17 17 18 17 18 18 18 18 18 17 18 18 18 18 18 17 16 15 15 14 13 13 12 10 9 9 8 7 7 7 6 6 5 5 5 4 4 4 5 5 5 6 6 6 5 5 4 5 5 5 5 5 5 5 5 4 3 3 3
7 9 10 8 7 8 6 6 5 5 7 5 5 5 3 4 6 7 8 7 8 10 11 12 15 17 15 11 11 12 12 12 13 13 14 16 17 17 17 18 17 17 18 18 19 19 19 18 18 19 18 18 18 18 17 16 15 15 14 14 13 12 11 10 9 9 8 8 7 6 6 6 6 6 5 5 5 5 6 6 6 6 6 5 5 5 6 6 5 5 5 5 5 5 4 4 4
6 8 10 7 5 7 5 6 6 6 7 6 7 7 7 6 5 6 10 10 10 12 12 13 15 17 17 15 14 15 14 13 13 13 13 15 17 17 17 17 17 18 18 19 20 20 19 19 19 19 19 18 18 18 17 16 16 15 14 14 14 13 12 11 10 9 8 8 7 7 7 6 6 7 6 5 5 6 6 7 7 6 6 6 6 6 6 6 6 6 5 6 6 5 5 5 5
7 6 8 8 7 7 7 6 7 8 8 7 7 9 9 9 5 7 11 11 11 13 14 14 16 17 16 16 18 18 16 14 12 11 11 12 15 17 17 17 17 18 18 19 20 19 18 19 19 19 20 19 18 17 17 16 16 15 14 14 15 14 13 11 10 9 8 8 8 8 8 7 7 7 7 6 6 7 7 8 8 8 7 7 7 7 7 7 7 7 6 6 6 6 6 6 6
8 7 8 8 6 7 8 8 7 7 8 7 8 9 8 6 3 6 10 11 11 12 14 14 15 16 15 14 15 16 15 13 12 11 11 12 15 17 17 18 18 18 18 18 18 18 18 19 19 19 19 19 18 17 17 17 16 15 14 14 14 14 13 12 11 10 9 9 9 9 9 9 8 8 8 8 8 8 8 9 9 9 8 8 8 8 7 8 8 7 6 6 4 5 5 6 6
11 7 8 9 7 7 7 8 9 8 7 7 7 8 5 1 2 3 7 8 9 10 11 11 12 14 13 12 12 13 13 13 13 13 12 13 15 16 17 18 17 17 17 18 18 18 18 18 18 19 18 18 19 18 17 17 16 15 14 13 14 14 14 13 12 12 11 10 9 9 9 9 9 9 8 9 9 9 9 9 9 9 8 8 8 7 7 8 8 8 7 7 5 5 6 6 6
12 10 9 9 8 8 7 8 9 8 8 6 6 7 2 3 2 2 6 6 6 7 8 9 10 12 12 11 12 13 13 12 13 13 13 13 15 17 18 18 17 16 16 17 17 17 18 18 17 18 18 18 18 17 17 16 15 15 15 15 14 14 14 14 14 13 12 11 11 10 10 9 9 9 9 9 10 10 9 9 9 8 8 8 7 7 8 8 8 8 8 8 7 7 7 7 6
Wind_Direction
141 153 154 169 187 205 203 216 225 177 234 148 119 127 105 88 114 123 122 126 124 129 130 133 132 117 124 116 114 84 59 61 42 85 106 115 134 135 136 134 132 124 119 121 123 124 123 122 114 110 109 106 105 102 101 99 99 102 103 102 101 99 98 98 98 97 98 100 102 101 100 99 102 103 101 98 95 93 94 96 94 93 95 96 99 101 101 100 104 112 112 111 111 108 102 96 94
156 159 162 182 195 234 213 212 243 162 188 135 106 97 110 128 130 125 131 136 128 134 138 134 126 115 120 100 116 107 65 40 56 85 98 122 132 133 138 137 133 125 121 122 122 120 120 126 119 112 112 110 107 104 103 100 100 101 102 104 104 102 100 98 96 95 95 100 101 99 98 98 98 98 98 97 94 93 94 95 95 96 96 98 98 98 98 99 105 110 109 110 110 106 100 95 94
165 159 167 193 205 247 258 217 233 176 157 122 101 98 124 136 124 122 126 124 124 138 140 131 117 113 135 113 98 102 79 63 91 101 110 128 132 137 141 138 134 126 122 124 123 118 119 126 122 115 113 110 108 105 102 100 99 99 101 103 104 104 102 100 97 95 94 95 97 98 95 93 94 94 94 94 95 95 94 94 100 103 97 97 97 95 96 97 102 107 109 110 107 100 96 95 95
161 163 181 211 227 241 244 218 231 216 132 120 115 114 131 126 118 119 118 122 133 141 136 130 110 64 120 100 80 85 85 88 102 109 123 136 135 139 141 137 134 128 127 126 121 119 122 125 120 116 113 110 106 103 101 99 99 100 103 104 105 104 102 102 99 95 91 90 92 94 92 86 84 85 87 90 93 96 99 99 102 105 100 98 96 94 94 95 100 105 109 111 106 96 91 93 94
161 168 197 244 249 264 256 238 259 254 84 96 118 121 127 120 121 122 122 132 141 140 135 134 115 93 88 70 70 97 95 104 111 119 126 130 133 139 139 136 135 131 130 125 121 121 124 126 120 117 114 110 105 101 99 100 102 106 107 104 103 100 99 99 99 99 96 93 88 86 87 84 82 85 90 93 97 100 103 105 105 104 104 101 97 97 96 96 99 103 108 108 103 97 94 94 95
169 175 179 293 277 299 274 223 171 131 44 41 114 124 125 122 126 126 126 135 140 136 132 130 127 124 97 65 65 72 89 121 123 125 125 129 136 139 137 138 136 132 131 126 122 122 126 127 123 120 116 110 104 100 100 102 104 105 105 101 98 97 100 100 101 104 105 100 86 85 91 94 97 98 99 102 106 107 103 105 108 104 103 100 98 101 101 102 101 101 105 105 101 99 98 98 99
179 191 179 262 256 277 265 214 123 113 58 16 113 126 127 126 129 129 133 139 141 138 132 126 129 122 100 97 81 61 86 120 126 126 126 133 136 137 137 138 135 133 132 122 119 124 129 127 124 120 113 108 103 105 106 105 102 101 99 95 95 96 99 101 105 108 110 103 86 88 101 106 107 102 98 101 104 106 104 105 108 107 106 105 103 104 104 106 105 104 106 107 105 104 103 103 101
178 219 195 207 225 228 251 159 96 94 86 72 108 123 128 130 135 136 140 145 147 145 138 135 134 115 98 111 94 85 108 115 123 122 126 133 136 138 138 138 136 136 133 123 121 127 129 126 122 115 109 106 107 111 108 101 97 97 95 93 96 97 98 103 111 109 101 98 92 94 102 101 104 106 100 100 103 107 114 113 110 108 108 111 112 111 108 107 105 105 108 110 110 109 110 109 103
175 246 202 170 238 217 219 111 107 93 103 113 110 119 128 135 140 140 145 144 146 146 139 139 132 114 107 103 100 113 116 116 123 123 129 135 137 139 137 139 138 137 134 128 127 127 127 125 119 111 106 105 109 109 105 102 97 95 95 98 98 95 100 107 106 96 89 94 100 103 102 98 107 115 111 112 114 114 118 113 109 109 111 112 110 109 108 106 105 106 107 109 110 110 111 108 104
229 235 241 209 236 196 149 118 115 107 112 118 115 125 134 140 143 143 145 140 144 141 134 133 113 119 117 103 102 117 124 127 129 128 133 136 139 139 136 138 137 138 136 130 129 128 127 123 117 109 104 104 105 105 106 105 99 97 96 94 94 96 103 105 97 92 94 100 107 117 115 108 109 107 105 113 112 109 112 112 113 114 116 115 111 112 111 106 106 108 106 107 109 109 108 105 103
263 212 255 234 214 194 136 115 113 111 114 115 119 130 137 143 144 144 142 137 144 138 135 136 114 118 114 102 99 115 130 136 134 133 135 138 140 139 136 135 138 139 137 133 130 129 127 123 116 109 106 108 106 105 104 101 99 98 96 93 96 102 105 101 95 95 100 107 113 116 105 96 96 94 94 100 96 103 115 118 119 119 119 116 112 112 108 104 107 107 103 106 111 109 107 105 101
295 271 250 237 220 129 108 117 121 118 123 125 129 133 142 148 145 148 146 139 144 141 135 131 122 124 117 109 110 128 138 139 134 135 136 138 140 139 135 134 140 137 136 135 129 129 127 123 120 116 115 113 108 106 102 101 101 98 98 97 98 98 101 101 99 100 102 108 111 104 97 96 101 105 107 105 97 103 114 116 116 119 121 115 109 106 103 104 106 104 104 112 113 108 108 107 100
307 316 274 262 330 87 115 119 122 126 133 131 130 137 153 153 148 150 146 140 144 143 125 124 133 126 111 109 122 137 140 137 135 135 136 139 139 138 135 136 139 134 135 132 127 129 128 125 125 121 115 111 110 109 105 103 102 100 99 98 97 95 99 102 102 105 105 107 111 106 104 104 106 113 118 112 103 100 103 109 113 116 116 111 106 105 106 107 106 106 111 113 108 107 110 109 103
282 308 297 285 278 142 114 118 134 140 132 125 129 144 157 143 140 148 145 139 135 128 117 127 139 118 112 122 135 144 140 138 138 136 137 138 137 138 137 137 137 134 134 130 126 127 126 123 120 116 113 112 111 108 104 101 99 98 95 94 94 95 98 101 103 105 105 107 111 106 102 103 105 110 111 109 108 109 114 117 117 118 114 109 108 110 112 110 108 109 112 110 105 106 108 108 106
280 287 289 246 155 133 115 131 143 139 125 131 140 147 141 120 140 149 142 135 122 118 119 128 139 123 138 146 147 145 140 140 139 136 137 137 136 137 136 138 137 136 134 130 128 125 122 117 113 112 113 114 109 103 101 98 96 96 96 95 93 94 96 98 101 102 105 108 106 101 100 102 104 103 104 107 111 119 130 127 125 125 119 114 112 112 111 106 104 108 111 109 107 108 107 108 107
281 282 265 244 148 143 145 146 146 140 135 138 143 145 131 124 146 140 120 125 126 135 137 133 141 153 151 148 140 139 139 140 138 136 137 137 137 137 138 140 137 135 134 130 126 122 119 112 109 109 110 112 110 107 104 99 97 97 97 94 93 95 97 99 99 100 104 106 103 101 101 101 102 100 100 106 112 121 130 130 128 124 117 114 111 108 106 104 106 113 116 112 111 110 108 105 101
230 255 247 230 172 155 144 150 154 133 137 141 145 151 138 132 135 118 123 134 130 131 122 111 112 135 135 130 131 135 139 139 139 138 140 142 143 142 143 144 141 139 135 129 125 124 119 109 107 108 109 112 115 113 108 103 100 98 98 96 94 97 102 103 102 102 104 103 100 100 100 100 101 101 100 104 112 121 126 128 126 118 113 112 110 113 116 117 119 121 122 118 115 110 105 102 99
235 259 258 232 108 107 133 133 121 120 138 146 150 156 145 140 137 133 139 130 124 123 116 106 98 105 115 121 129 135 140 141 143 144 146 148 149 149 147 148 149 144 138 133 132 129 120 113 111 110 112 114 115 111 108 110 106 104 104 101 98 99 101 101 104 107 106 103 101 100 100 98 101 105 108 114 119 123 124 126 123 119 118 117 118 124 126 126 125 123 122 120 117 110 103 101 103
231 85 286 348 68 116 153 112 115 129 139 141 147 156 145 138 138 148 147 133 136 135 127 120 113 115 119 125 133 137 142 144 146 149 150 152 153 152 149 150 150 146 143 141 140 134 123 119 114 111 114 113 110 105 106 112 112 110 106 102 101 101 100 101 104 105 103 104 102 99 100 99 104 112 117 122 122 122 123 124 124 122 123 123 123 122 119 120 120 119 117 110 105 103 101 99 104
232 101 353 8 69 140 129 112 125 133 136 140 144 150 142 137 142 156 150 143 152 147 137 133 132 136 134 133 138 141 146 147 149 154 154 154 155 152 151 152 150 149 146 143 141 133 127 124 117 114 115 112 108 105 108 111 111 109 105 104 105 102 100 103 105 104 104 104 101 99 100 100 103 108 110 110 111 115 118 120 121 121 121 120 116 113 112 114 114 110 104 98 90 94 102 99 102
33 101 153 43 38 78 114 117 126 133 140 142 142 146 142 139 142 152 149 147 155 151 145 144 144 145 142 140 142 144 148 149 153 157 156 155 156 151 151 151 146 146 144 142 140 134 132 127 121 119 116 114 110 107 110 111 109 108 107 109 109 106 105 109 111 107 107 103 98 98 99 100 102 106 104 102 108 116 117 115 116 120 121 115 110 114 115 109 110 100 90 92 91 96 103 97 97
212 107 77 74 60 84 123 122 129 139 141 139 145 146 138 137 141 151 153 144 141 144 144 143 144 145 145 144 143 148 151 153 156 158 159 157 156 152 149 147 142 143 145 143 141 136 134 130 127 124 120 115 109 108 113 113 113 111 111 114 113 112 113 116 113 106 103 100 96 94 96 99 102 108 111 111 114 118 118 116 117 122 125 119 112 120 117 105 108 102 94 98 97 97 98 97 97
271 89 58 50 74 112 125 122 133 141 143 146 149 137 136 144 142 151 148 89 120 134 135 138 142 144 145 144 145 151 154 156 158 158 162 159 156 153 149 147 144 144 144 143 142 140 138 136 131 126 123 117 111 114 118 119 116 114 116 119 117 115 115 114 109 104 104 101 96 94 96 99 102 108 112 114 114 116 116 115 117 120 122 121 115 114 111 106 106 104 102 101 96 98 101 103 103
285 86 83 65 84 110 122 127 141 148 147 142 137 136 146 147 136 147 125 97 124 131 131 137 141 143 144 146 148 151 154 157 158 158 160 159 156 153 149 147 144 141 141 142 143 145 143 142 136 129 128 123 120 122 123 122 119 119 121 121 118 114 112 108 107 106 105 100 98 101 103 106 107 107 108 110 112 113 112 113 116 117 115 115 113 109 107 107 107 105 105 102 100 99 101 107 109
244 83 100 115 106 111 125 133 146 147 141 135 138 146 148 138 130 132 124 122 133 132 132 139 142 145 147 148 149 150 154 157 156 157 158 157 156 153 151 148 145 142 143 145 144 146 146 144 142 136 134 131 130 131 128 126 124 123 123 124 120 113 110 109 110 108 102 97 100 109 112 112 110 108 108 107 109 110 111 111 110 110 111 112 113 112 109 109 108 105 102 97 95 95 101 108 109
171 100 105 131 121 119 132 136 145 141 140 145 145 144 135 132 129 118 129 138 136 134 136 143 146 147 149 150 151 152 156 158 157 158 156 155 157 156 156 154 151 147 145 147 144 146 146 145 146 141 139 137 135 135 133 132 132 129 126 126 121 115 115 114 111 105 100 99 103 113 116 111 107 106 108 109 111 110 110 109 107 110 112 114 114 110 107 106 103 100 97 94 92 93 100 105 103
128 130 109 125 124 120 134 138 142 141 147 158 149 137 133 145 159 137 138 144 141 140 139 147 152 148 151 153 152 155 158 159 159 158 156 155 159 162 161 160 158 148 147 151 145 145 147 146 146 144 143 138 137 139 137 136 134 133 131 128 124 123 122 115 110 106 104 104 104 109 110 104 101 104 107 111 114 113 110 107 107 111 111 111 108 103 101 98 97 96 93 91 88 95 103 104 106
132 137 116 121 122 120 145 147 145 146 151 162 149 131 139 165 188 139 140 151 150 144 141 152 156 150 154 155 154 158 159 159 161 162 160 159 162 166 164 165 163 152 153 154 145 147 150 148 145 146 145 140 143 144 139 138 136 136 133 129 130 129 124 116 112 109 108 109 105 106 106 104 106 107 108 111 113 113 110 106 105 107 107 105 99 98 99 96 100 99 91 83 80 98 107 107 115
150 158 132 128 132 131 145 143 133 140 153 164 149 133 151 162 134 132 144 153 153 147 145 154 158 154 156 157 155 160 160 159 164 166 163 162 163 166 165 165 164 157 155 153 150 153 149 146 146 147 148 145 149 148 138 136 137 135 131 129 132 131 127 121 117 114 111 111 109 110 113 114 116 115 113 112 114 112 109 107 105 102 100 98 98 101 103 103 107 107 96 79 80 105 112 111 121
171 188 181 146 154 150 137 127 109 115 133 167 160 152 156 140 128 142 150 153 156 152 150 156 160 159 160 160 160 161 159 161 166 167 164 163 162 165 166 164 165 157 152 154 156 156 148 146 151 150 152 150 151 146 136 137 138 136 133 132 134 137 135 129 122 119 114 114 116 119 122 124 123 122 118 115 114 114 111 108 103 100 98 100 102 102 102 103 103 103 98 86 85 107 112 110 105
196 184 198 165 170 153 125 124 138 130 134 242 248 177 150 137 143 151 152 159 163 156 155 161 162 162 163 164 165 162 161 166 168 166 165 165 164 165 165 164 166 157 152 158 156 154 150 149 154 152 153 153 150 144 138 141 139 137 137 135 139 143 141 135 129 126 123 122 124 126 128 128 125 121 118 115 112 113 112 107 103 103 102 101 98 86 83 91 89 83 79 82 93 98 106 107 100
201 183 207 175 160 146 120 121 165 145 145 194 259 173 147 147 154 156 160 168 169 162 160 165 165 165 165 166 168 164 163 168 169 168 167 167 165 165 165 166 167 161 157 157 154 155 153 150 156 155 153 154 149 144 141 142 140 139 139 138 143 146 144 140 136 135 134 132 131 132 131 128 126 121 117 113 107 108 112 110 109 108 107 103 91 78 80 83 81 72 53 56 74 75 92 108 111
191 207 230 169 143 140 129 147 183 161 144 160 264 170 141 155 160 161 170 175 174 167 162 166 167 165 166 168 169 167 165 167 171 171 169 169 167 164 164 165 167 165 161 156 154 157 154 151 159 158 154 154 149 144 142 143 144 142 142 141 143 148 147 145 144 143 142 140 137 136 135 130 130 128 121 120 111 111 117 115 115 114 111 105 91 82 85 83 79 73 49 36 45 55 75 90 94
187 199 234 147 132 142 150 162 177 175 155 155 227 203 137 154 163 164 174 180 178 172 165 165 167 166 168 171 169 169 168 168 172 172 171 171 167 164 162 163 167 166 163 160 157 158 154 152 157 157 155 154 149 145 144 144 147 144 143 145 146 149 151 149 150 149 149 147 143 142 141 134 135 133 126 128 122 119 122 118 119 121 118 112 103 98 93 84 79 77 59 34 26 37 50 56 64
213 203 224 157 139 158 160 167 178 177 170 160 180 179 138 152 161 167 176 181 182 179 169 165 167 168 169 172 170 171 171 171 172 171 172 171 166 166 163 161 166 168 166 163 158 156 154 153 154 156 157 156 150 147 147 147 149 148 148 151 151 153 153 151 153 153 155 153 148 147 146 140 140 137 133 136 132 130 130 124 124 129 126 120 116 111 101 91 79 69 60 31 10 36 44 45 54
220 190 287 164 145 166 131 131 162 164 175 173 172 164 144 154 163 171 176 180 186 181 173 169 168 169 172 175 171 171 174 171 169 170 169 169 168 166 163 161 165 167 164 161 161 159 157 155 154 157 160 157 152 152 154 154 156 155 155 156 157 158 156 154 156 157 158 155 151 150 149 148 146 139 140 141 140 139 133 131 133 134 133 124 115 110 100 92 77 63 54 23 11 50 54 54 57
184 125 281 235 174 169 120 129 152 147 164 169 170 171 153 159 168 173 175 180 188 183 178 175 171 173 176 176 173 172 174 168 166 168 168 170 170 165 163 162 162 163 162 162 165 164 161 159 158 159 161 160 159 160 162 163 162 162 162 162 161 160 158 157 160 160 159 155 152 151 150 150 145 139 141 141 142 140 132 133 134 133 134 121 109 101 89 84 77 67 50 18 27 50 47 58 64
194 175 213 230 219 143 105 135 157 160 174 155 165 181 174 172 169 170 175 182 191 187 181 178 174 176 178 177 175 172 171 166 165 167 169 173 172 167 164 165 165 164 165 168 170 167 166 164 160 160 162 163 165 166 167 168 167 167 167 166 161 157 157 159 162 162 157 154 154 153 151 150 144 139 140 140 140 138 134 133 131 130 127 117 109 100 89 83 80 64 48 34 40 56 57 57 48
209 193 200 208 179 108 101 134 157 164 161 145 173 187 184 172 161 173 182 185 195 191 184 181 176 175 179 180 174 171 173 170 170 171 172 174 173 169 167 169 170 168 169 172 172 169 169 168 163 163 164 167 167 168 170 171 170 169 164 163 160 155 158 159 155 155 154 153 156 156 154 152 147 142 142 141 138 136 135 136 134 132 128 123 115 103 97 94 90 68 55 45 35 61 84 72 49
218 203 210 203 161 175 163 150 164 164 145 172 188 194 185 161 158 184 193 191 195 194 189 186 182 178 179 181 174 173 175 174 175 175 175 175 172 172 171 171 172 170 173 175 173 172 173 172 167 165 167 168 169 169 173 172 167 164 155 155 157 151 155 157 151 154 158 156 158 160 159 157 153 150 148 145 141 139 138 140 139 138 134 130 118 107 108 110 107 85 62 43 32 49 81 84 66
207 212 225 202 177 223 294 137 161 172 178 183 175 195 200 171 177 187 186 194 195 192 191 189 188 184 180 179 178 179 176 175 178 176 176 175 173 174 172 172 173 173 176 178 178 176 175 176 171 168 169 170 171 171 172 169 164 162 155 154 158 154 156 164 167 167 165 164 166 166 164 164 163 158 155 151 144 141 142 141 139 141 140 134 124 108 101 107 111 95 70 48 44 47 57 80 78
199 206 232 277 181 206 137 140 156 188 204 184 174 200 211 188 196 185 170 187 195 193 194 191 187 186 184 180 180 186 181 178 180 178 176 175 174 174 172 176 179 177 179 181 181 179 176 175 173 171 171 171 172 172 171 169 169 168 164 164 169 169 168 172 177 174 168 170 170 164 162 167 171 168 164 156 146 143 142 141 139 141 139 134 125 108 101 114 115 90 64 49 51 51 45 69 89
207 171 180 194 182 181 164 153 162 203 198 182 196 207 201 205 200 182 176 187 194 196 196 193 187 184 188 183 179 187 185 180 182 180 178 177 177 177 175 181 185 180 178 180 180 178 175 174 174 174 174 173 173 172 171 172 175 174 173 175 175 175 174 172 175 172 165 166 163 159 162 169 177 178 173 165 153 146 143 143 144 142 139 137 126 120 123 117 99 72 54 45 43 51 49 44 71
162 120 167 191 179 177 184 173 181 229 120 170 198 193 215 240 186 172 180 184 191 199 198 195 189 186 188 185 182 186 185 182 182 180 181 181 180 182 181 183 188 184 177 178 180 178 175 174 175 176 177 177 175 174 174 175 178 179 181 183 179 179 176 167 169 167 159 161 161 161 165 169 177 183 178 173 166 155 149 150 152 148 145 139 139 144 141 103 76 61 48 39 28 42 52 46 38
41 73 194 190 165 177 203 199 195 259 271 199 191 189 224 255 152 161 172 180 192 197 195 193 191 190 188 186 187 187 185 184 183 182 184 184 184 187 186 185 188 185 177 178 179 176 175 175 176 178 179 180 178 177 177 178 179 179 184 186 180 178 172 163 168 167 162 163 164 164 167 169 176 183 185 183 179 170 163 160 159 159 155 148 155 159 138 116 83 71 49 26 20 27 37 46 45
15 122 212 178 165 181 207 223 224 247 256 245 188 188 226 240 146 163 173 186 195 192 191 191 190 191 188 187 190 188 185 185 186 184 184 188 188 189 190 187 186 185 180 178 178 177 176 176 178 180 181 182 183 181 180 180 180 181 186 188 182 176 170 165 167 168 169 172 171 170 171 174 178 183 189 189 189 187 179 174 172 169 166 163 167 164 143 147 146 126 92 24 7 6 19 27 39
177 190 201 180 179 188 202 229 306 261 246 253 202 187 219 237 165 176 185 194 194 186 189 189 187 190 188 188 190 189 186 185 187 186 184 189 191 191 191 188 185 184 181 178 179 180 179 179 180 182 185 185 184 185 185 183 182 184 188 189 187 181 174 175 175 177 179 180 180 176 175 180 184 186 188 189 192 195 191 188 185 178 174 173 174 176 179 181 172 161 151 114 8 345 354 10 13
200 203 200 191 188 199 219 198 227 255 232 244 216 187 215 246 194 169 169 182 190 185 186 188 187 188 188 189 191 189 187 186 187 187 186 189 191 192 192 188 185 183 182 182 182 182 181 181 182 184 187 188 187 187 187 186 184 187 190 191 191 187 184 187 188 190 191 188 188 181 177 183 186 190 191 191 193 194 194 194 195 190 184 187 186 178 186 193 181 165 165 173 172 274 324 350 351
202 209 198 201 205 203 221 213 210 237 220 204 254 201 217 250 205 149 151 163 188 186 186 189 188 185 186 190 191 189 187 188 187 186 190 193 190 191 191 186 184 183 184 186 185 184 182 183 184 185 188 191 191 190 189 188 187 188 191 191 192 190 192 195 195 199 201 200 199 192 188 189 192 198 199 197 196 191 193 197 199 198 194 195 194 185 189 195 194 184 179 191 203 200 239 311 325
201 205 199 203 209 205 218 218 215 229 217 195 196 193 220 233 136 134 157 166 172 181 187 189 190 187 185 188 190 188 186 188 189 186 191 195 190 190 189 184 185 187 188 188 187 185 182 183 186 187 189 192 193 193 190 190 190 191 192 193 193 192 194 197 200 205 205 204 208 207 204 201 200 204 205 203 201 195 196 197 198 202 199 199 201 197 198 197 197 201 201 206 215 212 222 261 297
205 206 210 215 217 215 223 223 218 229 219 175 153 176 226 210 131 114 142 158 153 166 177 183 191 190 185 186 188 187 186 187 189 189 191 192 190 191 189 187 189 190 190 190 188 185 182 182 186 189 190 191 194 196 194 192 192 192 194 195 195 194 194 195 198 203 207 207 210 212 216 216 211 207 205 204 206 204 204 202 201 203 201 203 210 206 204 205 204 206 212 220 224 222 229 252 278
206 207 216 223 224 225 239 247 229 238 244 186 167 217 241 136 143 134 133 157 167 167 167 173 185 186 180 181 184 184 184 186 188 190 192 191 191 194 194 193 193 192 191 190 186 185 184 182 185 190 193 192 194 197 197 196 194 194 195 197 198 197 195 195 195 199 204 208 212 215 219 224 219 209 202 202 205 207 209 208 205 203 203 208 212 209 208 208 209 213 217 223 229 231 232 246 263
192 207 219 220 235 243 241 237 219 235 256 220 188 229 218 157 171 161 154 163 171 173 172 171 175 176 171 169 179 184 183 187 190 191 194 194 193 196 198 198 197 194 191 189 186 186 186 183 184 190 194 195 195 196 198 198 196 196 196 197 199 199 198 198 197 199 202 204 210 216 218 218 215 208 203 201 201 204 208 205 204 204 206 210 210 208 211 210 211 219 223 226 232 235 236 246 255
200 206 210 195 228 249 233 226 219 224 244 230 199 215 223 211 191 166 172 173 170 176 178 172 170 174 177 179 188 191 188 188 190 192 196 195 194 196 199 199 199 196 192 188 187 187 187 185 185 190 194 197 197 197 200 200 199 199 199 199 201 201 202 203 202 200 203 203 202 207 213 212 207 205 203 202 198 198 201 200 204 207 207 210 210 205 207 210 215 223 226 229 235 238 245 251 252
243 245 214 192 210 218 204 218 227 219 229 232 208 209 227 229 193 173 187 180 170 174 177 176 174 178 183 184 189 192 189 184 182 188 196 194 194 196 197 198 197 195 193 189 188 188 189 188 188 191 195 197 198 199 199 201 202 202 201 201 202 203 204 205 205 202 202 203 201 201 205 205 205 205 205 205 202 197 197 198 202 210 210 208 208 206 207 208 214 222 228 231 230 229 241 253 254
241 268 223 201 219 224 209 219 230 229 232 232 217 212 223 229 174 169 182 173 167 170 175 180 179 178 182 185 185 185 182 177 172 184 196 192 194 197 197 198 197 194 193 190 190 191 192 192 191 193 195 197 199 200 199 201 203 204 203 201 201 203 205 205 205 204 203 204 204 203 202 202 204 207 205 205 206 202 198 198 202 208 210 207 206 208 207 207 212 217 225 231 222 213 230 247 251
203 228 215 201 217 230 221 224 229 238 240 231 229 226 209 112 43 126 149 153 160 164 171 180 179 177 179 179 178 174 174 174 173 183 192 190 193 198 200 200 197 193 193 192 194 195 195 194 193 193 194 196 199 199 199 201 203 204 203 202 202 203 205 207 205 205 207 207 204 204 205 203 203 205 204 200 201 203 202 204 206 207 208 205 203 209 209 207 212 214 220 227 219 215 229 239 242
197 207 215 210 213 220 221 221 220 229 242 236 240 242 189 75 22 100 124 135 143 154 168 175 174 175 175 172 174 176 176 177 177 180 186 188 194 199 200 200 197 192 192 195 196 197 197 195 191 190 192 196 199 198 197 199 201 203 204 204 205 204 204 208 208 206 208 207 204 202 202 204 204 203 202 199 198 200 202 205 209 207 208 205 202 209 214 212 214 216 220 225 221 219 227 232 235
Height
793 794 793 794 792 792 791 792 802 795 789 795 792 797 802 795 795 802 807 806 808 807 799 800 801 803 808 808 810 809 811 816 821 825 829 827 825 830 831 832 835 836 838 840 841 842 842 843 844 845 845 846 847 847 847 848 848 848 848 849 849 850 850 851 851 852 852 852 853 853 853 853 854 854 854 855 855 855 855 855 856 856 856 856 857 857 857 857 858 858 858 857 857 858 859 859 859
794 794 793 794 790 795 792 789 803 793 789 800 792 795 801 796 798 804 806 804 806 805 798 799 801 804 804 802 803 808 816 815 814 818 821 822 826 831 832 834 835 837 839 840 842 843 844 845 845 846 847 848 848 848 849 849 849 849 850 850 850 851 851 852 852 852 853 853 854 854 854 854 855 856 856 857 857 857 857 857 857 857 858 858 858 858 858 858 859 860 859 858 859 861 860 861 861
794 794 793 794 791 794 791 793 803 790 793 808 801 796 797 799 803 803 802 801 800 799 798 800 804 806 805 809 808 812 821 816 813 816 820 825 827 831 834 835 836 838 839 841 843 843 845 845 846 847 848 849 849 849 850 850 850 850 851 851 851 852 852 853 853 853 854 854 855 855 855 856 857 857 858 858 858 858 858 858 858 858 859 860 860 860 860 859 860 860 860 860 861 862 861 862 862
793 794 793 793 794 795 796 799 793 784 793 803 804 799 795 800 802 802 801 800 797 796 800 803 810 807 806 817 812 813 821 817 816 818 822 826 827 831 834 836 837 839 840 842 843 844 845 846 847 847 848 849 850 850 850 851 851 851 852 852 852 853 853 854 854 854 855 855 856 857 857 858 859 860 860 860 859 859 859 859 859 860 860 861 861 861 861 861 861 861 861 862 862 862 863 863 864
793 795 793 793 799 798 798 796 785 787 792 791 802 802 795 798 801 803 802 799 797 798 801 804 813 809 806 814 811 818 823 818 819 819 822 826 829 833 834 837 838 839 841 842 844 845 845 846 847 848 849 850 850 851 851 852 852 852 853 853 854 854 855 855 855 855 855 855 856 858 859 861 862 861 862 861 860 860 860 860 860 860 860 861 862 862 862 863 863 863 863 863 863 863 863 864 865
793 794 794 794 797 795 798 796 788 794 793 788 801 801 795 798 800 802 802 801 798 797 800 803 809 810 813 814 809 817 819 818 821 820 823 828 831 834 836 838 839 841 842 843 844 845 846 847 848 849 850 851 851 851 852 852 853 853 854 854 855 855 855 855 856 855 855 856 857 858 858 859 861 861 861 862 861 861 861 861 861 860 860 861 861 862 862 864 864 864 865 865 864 863 864 865 866
794 796 796 799 799 799 805 798 789 793 793 788 793 797 797 798 798 800 804 806 804 801 801 802 802 810 819 815 815 818 816 818 819 821 826 829 832 834 837 838 840 842 843 844 845 846 847 848 849 850 851 851 852 852 853 853 854 854 855 856 856 856 856 856 856 856 855 856 858 858 858 857 859 862 862 863 863 862 862 862 862 862 861 861 861 862 862 864 864 865 866 865 865 865 866 867 868
794 797 797 804 805 804 807 797 790 792 794 790 788 795 797 797 797 801 806 807 809 806 804 802 799 815 821 814 823 823 817 820 820 824 827 830 834 835 838 839 841 843 844 845 846 847 848 849 850 851 852 853 853 853 854 854 855 856 856 857 857 857 857 857 857 857 857 857 857 857 859 859 860 861 862 863 864 863 863 863 863 863 863 862 862 862 863 864 865 866 866 866 866 866 868 869 869
794 798 799 806 808 809 809 800 795 794 796 793 792 796 796 797 797 801 806 806 806 806 806 802 801 818 822 818 827 822 819 823 823 827 829 832 835 836 839 839 842 843 844 845 847 848 849 850 851 852 853 853 854 854 854 855 856 857 858 858 858 857 857 857 857 858 859 859 857 857 858 861 861 860 862 863 864 863 863 864 864 864 864 864 863 863 863 864 865 866 867 867 867 868 869 870 870
794 798 800 807 810 811 809 802 797 795 797 794 795 798 798 797 798 801 805 806 805 806 806 800 803 816 820 823 827 821 822 825 825 829 830 834 835 837 840 840 843 843 845 846 847 849 850 851 851 853 853 854 855 855 855 856 857 858 858 858 858 858 858 858 858 859 859 859 857 856 857 859 861 860 862 864 865 865 864 865 865 865 865 865 865 864 864 865 866 866 867 868 869 870 870 871 871
799 798 798 807 811 807 804 806 802 797 798 797 798 798 797 797 800 803 804 807 805 806 805 802 810 814 818 825 827 823 823 825 826 829 831 835 837 838 840 842 844 844 845 846 848 849 850 852 852 853 854 855 855 855 856 857 858 858 859 859 859 859 859 859 859 859 859 859 857 857 858 861 862 861 862 865 866 866 866 866 867 867 866 866 866 866 865 865 867 867 868 869 872 872 872 872 872
803 800 798 805 804 797 797 804 803 800 801 801 802 799 797 797 802 806 806 809 806 808 805 805 810 809 820 828 826 824 824 826 828 830 833 835 838 839 841 843 844 845 846 846 848 850 850 852 853 854 854 855 856 856 857 857 858 858 859 859 859 859 859 859 859 859 859 859 858 858 860 861 862 861 859 862 866 867 867 868 868 868 868 867 867 866 866 866 867 868 870 872 874 873 873 874 873
800 800 797 800 794 789 789 795 801 803 803 801 803 800 795 798 804 805 805 808 808 812 807 803 804 805 821 828 825 825 824 828 829 831 834 836 838 840 842 843 845 846 846 847 848 850 851 852 854 855 855 856 857 857 857 858 859 858 859 859 859 860 860 860 860 860 860 860 860 860 860 860 861 861 860 861 865 868 869 870 870 869 868 868 867 867 868 868 869 871 872 874 874 874 875 875 875
797 798 795 796 792 787 785 794 802 803 804 800 801 799 796 800 802 800 804 811 812 810 805 798 799 809 823 827 828 826 825 829 830 833 834 836 839 840 843 844 846 847 847 848 849 850 851 853 854 855 856 857 858 857 858 858 859 859 859 859 860 860 861 861 861 861 862 862 861 862 861 860 862 863 863 864 866 869 871 871 871 870 870 869 869 870 870 870 871 873 874 874 874 875 876 876 876
794 796 795 791 787 790 789 793 797 800 805 801 800 799 799 801 798 800 803 811 813 802 800 799 799 812 821 824 828 823 825 830 830 833 835 837 839 841 843 844 846 847 848 849 850 851 852 853 854 855 856 858 858 858 859 859 859 860 860 860 860 861 862 862 862 863 863 863 863 863 862 860 862 864 865 866 866 869 872 873 872 872 872 871 871 871 871 870 871 874 875 876 876 877 877 878 877
790 793 797 793 789 797 794 789 792 800 805 800 798 797 804 805 797 803 801 803 810 801 802 806 803 809 813 816 820 819 824 830 831 834 836 838 840 842 844 844 847 847 849 850 850 852 852 854 854 856 857 858 859 859 860 860 860 860 861 861 861 862 863 863 863 864 864 864 864 864 863 862 864 866 867 867 868 869 872 874 873 872 872 871 870 871 871 871 874 877 878 878 878 878 879 879 878
787 791 799 798 792 795 792 788 791 796 801 800 799 798 807 810 801 802 799 798 807 806 806 806 803 804 807 811 815 819 826 829 831 835 837 839 840 842 844 845 847 847 849 850 851 852 853 854 855 856 857 858 859 859 861 860 861 861 862 862 863 863 863 864 865 865 865 864 865 865 865 865 866 869 870 871 872 873 874 875 873 872 872 872 871 873 875 876 878 880 880 879 879 879 879 879 878
789 799 801 797 796 796 787 786 788 790 798 801 800 798 803 810 807 803 802 806 808 810 810 806 806 805 807 813 817 822 827 829 832 834 836 838 840 841 843 845 846 847 849 850 852 853 854 855 855 857 857 858 859 860 861 861 862 862 863 864 864 865 864 865 865 865 865 865 866 866 867 868 869 871 872 874 876 876 876 875 874 873 874 874 875 878 879 879 880 880 880 880 880 880 879 879 879
791 804 805 796 798 797 782 782 785 787 795 798 799 798 799 805 806 802 808 815 812 815 815 810 814 813 813 816 820 824 827 830 831 833 836 837 839 840 842 845 846 847 849 850 852 853 854 855 856 857 857 858 859 860 861 862 863 863 864 865 865 866 865 866 866 865 866 866 867 867 868 869 870 871 872 874 876 877 877 876 875 875 876 876 877 879 879 879 880 880 880 880 880 879 879 879 879
789 801 811 799 790 788 779 782 785 784 790 797 801 799 800 802 801 802 809 815 813 815 815 813 819 819 817 818 820 825 827 829 831 833 835 837 838 840 842 844 846 848 849 850 852 854 854 855 856 857 857 858 859 860 861 862 863 864 864 865 866 866 866 866 867 867 867 867 867 867 869 870 871 871 872 873 875 877 877 877 877 876 876 877 877 878 879 880 880 880 880 879 879 878 879 879 879
791 801 809 796 787 790 784 784 785 784 789 795 800 801 804 802 799 803 807 814 816 813 809 810 815 816 817 818 820 824 826 828 831 833 834 837 838 840 842 843 845 848 849 851 852 854 855 855 856 857 858 858 859 860 861 862 862 864 864 865 866 866 867 867 867 867 867 868 868 868 869 870 872 872 873 873 874 876 876 877 877 877 877 877 877 878 879 880 880 880 879 879 879 878 878 879 879
790 795 795 788 791 798 789 783 785 785 789 795 799 802 804 802 802 805 807 815 815 808 804 805 809 812 815 816 819 823 825 827 829 832 834 836 838 839 842 843 845 848 849 851 852 853 855 856 857 857 858 859 860 861 861 862 863 864 864 865 866 867 867 867 868 868 867 868 868 868 869 871 873 874 874 874 875 876 876 877 877 877 878 878 878 879 879 879 879 879 879 879 879 879 879 879 879
791 792 788 787 791 795 788 784 788 787 792 798 798 798 800 804 808 806 807 811 806 801 800 803 807 810 813 816 819 822 824 827 829 832 835 836 838 839 841 843 845 848 849 851 852 854 855 856 857 857 858 859 860 861 862 862 863 864 864 865 866 867 867 868 868 868 868 868 868 869 871 873 874 875 875 875 875 876 876 877 877 878 878 878 878 878 879 879 880 880 880 880 880 880 879 879 879
791 793 791 791 790 791 787 786 789 789 795 796 794 797 801 807 810 807 809 808 801 800 800 803 808 810 814 817 818 822 824 827 829 832 835 836 839 840 841 843 845 848 849 851 852 853 855 856 857 858 858 859 861 861 862 863 863 864 864 865 866 866 867 868 868 869 869 869 869 870 872 874 874 875 875 875 876 876 877 877 878 878 878 878 878 878 879 880 881 881 881 881 880 880 880 880 879
789 791 792 792 791 790 787 787 789 790 794 795 796 802 803 804 806 809 811 807 802 801 802 805 808 811 815 818 820 822 825 828 830 833 835 837 839 841 842 844 845 848 849 851 852 853 855 856 857 858 859 860 861 862 863 863 864 864 865 865 866 866 867 868 869 870 870 870 870 872 873 874 874 875 875 876 877 877 878 878 878 878 878 878 879 879 880 881 881 881 881 881 881 881 880 880 879
787 788 790 791 792 790 788 790 791 793 795 796 801 806 804 800 804 814 812 805 803 802 806 808 810 814 816 819 821 823 826 828 830 833 835 837 839 841 842 844 845 847 849 850 852 853 855 856 857 858 859 860 861 862 863 864 864 864 865 865 866 867 868 869 869 870 870 871 873 873 874 874 874 875 875 877 878 878 879 879 879 879 880 880 880 880 880 881 881 881 881 881 881 881 880 880 879
783 786 789 790 793 792 791 793 793 794 796 797 802 808 806 801 806 817 813 803 803 805 809 811 812 816 817 819 821 823 826 827 830 832 834 837 839 841 842 843 845 846 849 850 852 853 854 856 857 858 859 860 861 862 863 864 864 865 865 866 866 867 868 869 870 870 872 873 874 874 874 874 875 875 876 878 879 880 880 880 880 880 881 881 881 881 881 881 881 881 881 881 881 881 880 880 879
782 786 791 793 793 795 794 795 795 796 800 797 799 808 808 805 808 814 810 803 804 807 812 813 814 817 818 820 822 823 825 827 830 832 834 836 838 840 841 843 844 846 848 850 852 853 854 856 857 858 859 860 861 862 863 864 864 865 865 866 866 867 868 869 870 871 872 873 874 874 874 875 876 877 878 879 880 880 880 881 881 881 881 881 881 881 882 882 882 882 882 882 881 881 880 880 880
784 785 794 799 796 800 799 798 797 798 803 796 797 815 817 811 813 810 805 804 804 808 813 814 816 817 818 820 822 823 824 827 830 831 833 836 837 839 840 842 844 846 848 850 852 853 854 856 857 858 859 860 861 862 863 864 864 865 866 866 867 867 868 869 871 872 872 873 874 874 875 876 878 879 879 880 881 881 881 881 881 882 882 882 882 882 882 883 882 883 882 882 882 881 881 880 879
787 785 792 798 800 805 804 804 804 804 806 798 801 823 824 814 814 809 804 805 807 811 814 815 816 817 819 820 822 823 824 827 829 831 833 835 837 838 840 842 843 845 847 849 851 852 854 856 857 858 860 860 861 863 863 864 865 866 866 867 867 868 869 870 871 872 872 873 874 875 876 877 879 879 880 880 881 881 881 881 882 882 882 883 883 883 883 883 883 883 883 882 882 881 881 880 879
787 789 791 796 810 812 805 807 809 812 811 802 807 823 826 818 814 809 805 806 808 812 815 815 816 817 818 820 821 823 824 826 828 830 833 835 837 838 840 842 843 845 847 849 850 852 854 855 857 858 859 861 862 863 863 864 866 866 867 868 868 869 870 870 871 872 873 874 875 876 877 878 879 879 880 880 880 881 881 881 882 882 883 884 884 884 884 884 884 883 883 882 882 881 881 880 880
785 800 801 793 808 813 807 809 808 814 814 806 812 824 828 822 814 810 807 807 809 813 815 815 815 816 818 820 820 823 824 825 827 829 832 834 836 838 840 842 843 845 846 848 850 852 854 855 857 858 859 861 862 863 864 865 866 866 868 868 869 870 870 871 871 872 873 874 876 876 877 878 878 879 880 880 880 881 881 882 883 883 884 884 884 884 884 884 884 884 883 883 882 881 880 880 880
785 803 805 787 797 808 809 812 806 808 813 814 819 824 828 823 814 810 808 808 810 813 815 815 815 816 818 820 820 821 823 825 826 828 831 833 835 837 839 842 843 845 846 848 850 851 853 855 857 858 859 861 862 863 864 865 866 867 868 869 869 870 871 871 872 873 874 875 876 877 878 878 879 879 880 880 881 881 882 882 883 883 884 884 885 885 884 885 884 884 884 883 883 881 880 880 879
790 797 799 788 795 807 813 815 807 805 810 819 823 820 820 817 812 812 810 809 811 814 814 814 815 816 817 818 819 821 823 825 826 827 830 832 835 837 839 842 843 845 847 848 849 851 853 855 856 857 859 861 862 863 864 865 866 867 868 869 870 871 871 872 873 874 875 876 877 877 878 879 879 879 880 880 881 882 882 883 883 884 884 885 885 885 885 885 885 884 884 883 883 882 880 880 879
792 790 790 789 793 802 811 813 805 804 812 819 825 821 815 813 812 813 811 809 812 814 813 814 815 815 817 818 818 821 822 824 824 826 829 832 834 837 838 841 843 845 846 848 849 851 852 855 856 858 859 860 862 863 864 866 866 868 869 869 870 871 872 873 873 874 875 876 877 878 878 879 880 880 881 881 882 882 883 883 884 884 885 885 885 885 885 885 885 885 884 883 883 882 881 880 879
786 787 785 789 799 801 803 804 796 798 812 818 821 821 816 814 814 813 811 810 812 813 812 813 815 815 816 817 818 820 821 822 822 825 828 831 833 835 838 840 843 845 846 848 849 851 852 854 856 857 859 860 861 863 864 866 867 868 869 870 870 871 872 873 874 875 875 876 877 878 879 879 880 881 881 882 882 883 883 884 884 884 885 885 885 885 885 885 885 885 884 883 882 881 881 879 879
782 793 791 786 796 799 796 801 797 797 812 817 818 819 816 814 813 811 811 811 812 814 815 814 815 815 816 816 818 819 820 820 821 824 828 831 833 834 837 839 842 844 846 848 849 851 852 854 856 857 859 860 861 862 864 865 866 867 868 869 870 871 872 873 874 875 875 876 877 878 879 880 880 881 882 882 883 883 883 884 884 885 885 885 885 885 885 885 884 884 884 883 882 881 880 879 879
781 791 794 787 788 790 789 795 796 796 808 816 817 820 818 814 812 809 809 813 813 813 814 814 814 815 815 816 818 818 819 818 820 824 827 830 832 833 836 838 840 843 845 847 849 850 852 853 855 857 858 860 861 862 863 865 866 867 868 868 869 870 871 872 873 874 875 876 877 878 879 880 880 881 881 882 883 883 883 884 884 885 885 885 885 885 885 885 884 884 883 883 882 881 880 879 879
782 784 790 790 787 789 791 791 790 791 805 818 818 818 816 813 813 812 809 812 812 809 809 811 811 814 816 816 817 818 820 820 820 823 825 828 830 832 835 837 839 842 844 846 848 850 852 853 855 856 858 859 860 862 863 864 866 867 868 868 869 870 871 872 873 874 875 876 877 878 879 879 880 881 881 882 882 883 883 884 884 885 885 885 885 885 885 885 885 884 883 883 882 881 880 880 880
782 784 789 791 788 792 796 796 794 792 805 817 814 813 811 811 818 817 812 811 810 808 807 807 808 811 814 814 815 817 819 821 821 821 823 826 829 831 833 835 837 840 843 845 847 849 851 852 854 855 857 859 860 861 862 864 865 866 867 868 869 870 871 872 873 874 875 876 877 878 878 879 880 880 881 881 882 882 883 883 884 885 885 885 885 885 885 885 884 884 883 883 882 881 879 880 881
782 782 786 789 788 788 790 795 796 795 802 805 811 822 814 809 821 821 813 811 809 808 808 809 809 808 811 813 814 815 816 819 820 821 822 823 827 829 832 834 836 838 841 843 845 847 849 851 853 855 856 858 859 861 862 863 865 866 867 868 869 870 871 872 873 874 874 875 876 876 878 878 879 880 880 881 881 882 882 883 884 884 884 885 885 885 885 885 884 884 884 883 883 882 881 880 881
784 782 781 783 785 787 789 793 801 810 812 801 809 834 826 806 812 817 813 814 812 809 810 811 811 809 811 813 815 814 814 816 817 818 820 822 825 828 831 833 835 836 839 841 843 845 848 850 852 854 856 857 859 860 862 863 864 865 866 867 869 869 870 871 872 872 873 874 875 875 877 878 878 879 880 880 881 881 882 883 883 884 884 884 885 885 885 885 884 884 884 884 883 883 883 881 881
787 781 777 780 783 788 792 796 810 820 815 801 800 826 837 816 805 810 813 817 816 811 811 811 810 811 811 811 813 813 813 814 816 817 818 820 824 826 829 832 833 835 837 839 842 844 846 849 851 853 855 856 858 859 861 862 863 864 866 866 867 868 869 870 871 872 873 873 874 875 876 877 878 879 879 880 881 881 882 882 883 883 884 884 884 885 885 885 884 885 884 884 884 884 884 883 881
789 777 774 782 784 789 792 796 811 813 804 803 798 811 837 825 803 805 812 818 821 816 813 811 808 810 810 809 810 810 810 812 814 816 817 819 822 824 827 830 831 833 835 838 840 843 845 848 850 852 854 856 857 859 860 861 863 864 865 866 866 868 868 869 871 871 872 873 874 875 876 877 878 878 879 879 880 881 881 882 882 883 883 884 884 884 885 885 885 885 885 885 885 885 885 885 883
785 775 776 780 783 788 788 791 804 807 805 811 799 799 826 821 797 798 809 816 823 819 813 810 808 808 808 808 809 807 807 809 811 814 816 818 821 823 825 828 830 832 834 837 839 842 844 847 849 851 853 855 856 858 859 860 862 863 864 865 866 867 868 869 870 871 872 873 874 875 875 876 877 878 879 879 880 881 881 882 882 883 883 883 884 884 884 885 885 885 885 885 885 885 885 885 885
778 776 778 779 783 786 787 791 798 805 812 812 796 794 817 822 802 798 809 814 815 813 808 805 804 805 806 807 807 806 806 807 808 810 814 817 819 822 825 826 829 831 832 836 838 841 843 846 848 850 852 854 856 857 859 860 861 863 864 865 865 867 868 869 870 871 872 873 873 875 875 876 877 878 878 879 880 880 881 882 882 882 883 883 884 884 884 885 885 885 886 886 886 886 886 886 886
776 780 783 786 789 788 791 792 795 812 820 805 790 788 804 820 811 797 800 800 797 801 803 801 801 802 804 804 804 804 805 806 807 809 812 816 818 820 823 825 827 830 832 835 837 839 842 844 847 849 851 853 855 856 858 859 861 862 863 864 865 866 868 868 870 870 871 872 873 874 875 876 877 877 878 879 879 880 881 881 882 882 883 883 883 884 884 884 884 885 886 886 886 886 886 886 886
780 784 787 796 801 799 802 801 807 827 826 800 785 784 795 814 809 789 786 785 782 789 797 798 799 800 801 802 801 801 803 804 806 808 810 813 816 818 820 823 826 829 831 833 836 838 840 843 845 848 850 852 854 855 857 858 860 862 863 864 865 866 867 868 869 870 871 872 872 873 874 875 876 877 877 878 879 880 880 881 881 882 882 883 883 883 884 884 884 885 885 886 886 886 886 886 886
783 785 791 810 819 819 823 819 818 824 815 795 785 789 799 803 790 780 783 784 780 782 788 791 793 796 798 799 799 799 800 803 804 807 810 810 813 816 818 822 825 828 831 832 835 837 839 842 844 847 849 851 853 854 856 858 859 861 862 863 865 866 867 868 869 870 871 871 872 873 874 874 875 876 877 878 878 879 880 880 881 881 882 883 883 883 883 884 884 884 885 885 885 886 886 886 886
786 786 793 812 822 832 839 827 819 817 804 790 786 795 804 796 781 777 779 780 777 777 780 784 787 790 794 795 796 797 799 802 803 805 808 809 812 815 818 821 824 826 829 831 833 835 837 840 843 845 848 849 852 853 855 857 858 860 861 863 864 865 866 868 869 870 870 871 872 872 873 874 874 875 876 877 878 878 879 880 880 881 881 882 882 883 883 883 884 884 885 885 885 885 886 886 886
783 777 784 798 802 817 829 819 817 817 799 791 797 804 803 797 789 779 774 775 775 776 777 780 785 786 789 792 793 796 798 800 802 804 806 808 811 815 817 820 822 824 827 829 832 834 836 838 841 844 846 848 851 852 854 856 857 859 860 862 864 865 866 867 868 869 870 871 871 872 873 873 874 875 875 876 877 878 879 879 880 881 881 882 882 882 883 883 883 884 884 885 885 885 885 885 886
781 771 781 791 782 790 806 803 804 810 804 801 805 800 785 785 788 776 774 779 776 778 779 780 786 786 788 794 794 795 798 799 801 803 804 806 810 813 815 818 820 822 824 827 829 832 834 837 839 842 845 847 849 851 853 855 856 858 859 861 863 864 865 866 867 868 869 870 871 872 872 873 874 874 875 876 877 877 878 879 880 880 881 881 882 882 882 883 883 884 884 884 884 885 885 885 885
779 778 785 780 768 777 799 804 797 806 820 810 799 796 783 783 791 779 776 783 780 781 783 781 786 788 791 797 797 797 799 799 800 801 802 804 807 811 813 815 818 820 822 825 827 830 832 835 838 840 843 846 848 850 852 853 855 857 858 860 862 863 864 865 866 868 869 870 871 871 872 873 873 874 875 876 876 877 878 878 879 880 880 881 881 882 882 882 883 883 884 884 884 884 884 885 885
775 785 778 771 774 779 792 809 809 815 828 809 791 800 797 792 800 788 778 784 784 783 783 782 785 789 792 796 795 795 796 797 799 799 801 803 806 809 811 813 816 818 821 823 825 828 831 833 836 839 842 844 846 848 850 852 854 855 857 859 860 862 863 864 865 867 868 869 870 871 871 872 873 874 874 875 876 876 877 877 878 879 879 880 880 881 881 882 882 883 883 883 884 884 884 884 884
767 773 762 769 794 797 793 809 815 818 826 811 795 798 792 784 791 789 781 782 781 780 781 782 784 787 789 790 790 791 792 795 799 800 802 802 804 807 809 811 814 816 819 821 824 827 829 832 834 837 840 842 844 847 848 851 852 854 856 857 859 861 862 863 864 866 867 868 869 870 871 872 872 873 874 874 875 875 876 876 877 878 878 879 879 880 880 881 881 882 882 883 883 883 884 884 884
768 768 761 766 783 788 789 795 797 805 817 814 805 800 787 776 775 778 777 775 775 778 778 778 780 781 783 784 785 788 790 794 797 801 802 801 803 805 807 810 812 814 817 820 823 825 827 830 832 835 838 840 843 845 846 849 851 852 854 856 858 859 861 862 864 865 866 867 868 869 870 871 871 872 873 873 874 874 875 876 876 877 877 878 879 879 880 880 880 881 881 882 882 882 883 883 883
776 779 776 774 774 774 781 786 781 789 806 811 809 802 788 777 772 771 772 772 772 775 776 776 776 777 779 781 783 786 790 792 794 797 799 800 802 804 806 808 810 813 816 818 820 823 825 828 831 833 836 838 840 842 845 847 849 851 853 854 856 858 860 861 862 864 865 866 867 868 869 869 870 871 871 872 873 874 874 875 875 876 877 877 878 879 879 879 880 880 880 881 881 881 882 882 882
768 775 773 773 775 776 791 798 782 778 792 798 803 803 790 780 776 772 771 773 773 773 775 776 775 777 779 781 783 786 789 791 792 794 796 797 800 803 804 807 809 812 815 817 819 821 823 826 829 832 834 836 838 840 843 845 847 849 851 853 855 856 858 859 861 862 863 864 866 866 867 868 869 870 870 871 872 872 873 874 875 875 876 877 877 878 878 879 879 879 879 880 880 880 881 881 881